Content
SEND FEEDBACK

Daily
Averages
Monthly
Summary
Mexico

CANCUN, QUINTANA ROO


Home > North America > Mexico > Quintana Roo
Elevation: 30 feet     Latitude: 21 09N     Longitude: 086 49W

WEATHER
 
SELECT A DAY
Number of Records: 163,700;   Date Range: 1/1/95 - 7/27/14
 
SHARE

PRINT THIS DATA

[ ← Previous Day ]
WEATHER ALMANAC - JANUARY 11, 2014
[ Next Day → ]
[ °C ]   °F
Weather ElementAverageHighLow
Temperature78 °F82.4 °F (8:43 am)69.8 °F (11:43 pm)
Dewpoint72.5 °F73.4 °F (1:45 am)69.8 °F (10:41 pm)
Humidity83.6 %100 % (9:46 pm)70 % (10:43 am)
Barometer30.02 in30.08 in (9:41 am)29.92 in (2:48 am)
Wind Speed7.1 mph13.8 mph (9:41 am)
Weather ElementAverage
Visibility7 mi
Wind DirectionESE (129.1 °)

Weather ElementTotal
Precipitation---
Cooling Degree Days11.1 (Base 65)
Growing Degree Days26.1 (Base 50)
Averaged from 23 records on January 11, 2014
WEATHER CONDITIONS BREAKOUT
WIND DIRECTION BREAKOUT
WEATHER BY HOUR - JANUARY 11, 2014
[ °C ]   °F
Local TimeTemperatureDewpointHumidityBarometerVisibilityWind DirectionWind SpeedGust SpeedPrecipitationEventsConditions
1:45 AM77.0 °F73.4 °F89 %29.98 in7.0 miSE (140°)8.1 mphPartly Cloudy
2:48 AM77.0 °F73.4 °F89 %29.92 in7.0 miSE (140°)10.4 mphPartly Cloudy
3:47 AM77.0 °F71.6 °F83 %29.99 in7.0 miSE (140°)6.9 mphPartly Cloudy
4:46 AM77.0 °F73.4 °F89 %30.00 in7.0 miESE (120°)6.9 mphPartly Cloudy
5:45 AM77.0 °F71.6 °F83 %29.95 in7.0 miSSE (150°)6.9 mphPartly Cloudy
6:46 AM77.0 °F73.4 °F89 %30.03 in7.0 miESE (120°)5.8 mphScattered Clouds
7:41 AM78.8 °F71.6 °F78 %30.04 in7.0 miSSE (150°)6.9 mphMostly Cloudy
8:43 AM82.4 °F73.4 °F74 %30.04 in7.0 miSSE (150°)10.4 mphMostly Cloudy
9:41 AM82.4 °F73.4 °F74 %30.08 in7.0 miSSE (150°)13.8 mphMostly Cloudy
10:43 AM82.4 °F71.6 °F70 %30.06 in7.0 miSSE (150°)13.8 mphMostly Cloudy
11:43 AM82.4 °F73.4 °F74 %30.02 in7.0 miSSE (150°)13.8 mphMostly Cloudy
12:42 PM82.4 °F71.6 °F70 %30.00 in7.0 miSSE (150°)11.5 mphMostly Cloudy
1:43 PM82.4 °F71.6 °F70 %29.99 in7.0 miSouth (170°)11.5 mphMostly Cloudy
2:46 PM82.4 °F73.4 °F74 %29.97 in7.0 miSSE (150°)10.4 mphMostly Cloudy
3:41 PM80.6 °F73.4 °F79 %30.00 in7.0 miSSE (150°)10.4 mphMostly Cloudy
4:41 PM80.6 °F73.4 °F79 %30.01 in7.0 miSSE (150°)5.8 mphScattered Clouds
5:41 PM78.8 °F73.4 °F83 %30.00 in7.0 miSE (140°)4.6 mphPartly Cloudy
6:40 PM75.2 °F73.4 °F94 %30.00 in7.0 miCalmScattered Clouds
7:42 PM73.4 °F71.6 °F94 %30.06 in7.0 miCalmScattered Clouds
8:40 PM75.2 °F73.4 °F94 %30.04 in7.0 miSE (140°)3.5 mphScattered Clouds
9:46 PM71.6 °F71.6 °F100 %30.08 in7.0 miCalmClear
10:41 PM71.6 °F69.8 °F94 %30.08 in7.0 miNorth (360°)2.3 mphClear
11:43 PM69.8 °F69.8 °F100 %30.03 in7.0 miCalmPartly Cloudy
Hourly data recorded from MMUN, located miles away from Cancun, Quintana Roo







STORIES FROM OUR PARTNERS